Date String (YYYY-MM-DD hh:mm:ss) UTC,Instrument flags,absolute air pressure of the measurement (hPa),sample flow rate (lpm),inlet stack bypass flow (lpm),air temperature of the measurement (°C),ambient temperature measured by the external sensor (°C),aerosol sample conditioner tube jacket temperature (°C),OPC LED temperature (°C),internal box temperature (°C),relative humidity of the measurement (%),span deviation,mass concentration of particles derived from Lorenz-Mie calculation of OPC scattering (μg/m³),mass concentration of particles derived from Lorenz-Mie calculation of OPC scattering (μg/m³),mass concentration of particles derived from Lorenz-Mie calculation of OPC scattering (μg/m³)
DateTimeUTC,F1_M11,P_M11,Q1_M11,Q2_M11,T1_M11,T2_M11,T3_M11,T4_M11,T5_M11,U1_M11,ZSPAN_M11,X2_M11,X0_M11,X1_M11
2024-06-11 02:00:00,SystemResetWarning,0827.0,5.01,000.00,029.9,029.5,000.0,037.9,031.8,031.1,0000.0,0005.61,0013.02,0004.81
2024-06-11 02:01:00,SystemResetWarning,0827.0,5.01,000.00,030.0,029.6,000.0,038.0,031.8,031.3,0000.0,0005.67,0013.69,0004.85
2024-06-11 02:02:00,SystemResetWarning,0827.0,4.99,000.00,030.0,029.6,000.0,038.0,031.8,030.8,0000.0,0005.68,0013.54,0004.89
2024-06-11 02:03:00,SystemResetWarning,0827.0,4.98,000.00,029.9,027.8,000.0,038.1,030.9,029.7,0000.0,0005.75,0013.62,0004.95
2024-06-11 02:04:00,SystemResetWarning,0827.0,5.03,000.00,029.5,026.5,000.0,038.1,030.3,029.6,0000.0,0005.81,0014.61,0004.98
2024-06-11 02:05:00,SystemResetWarning,0826.9,5.00,000.00,029.3,026.6,000.0,038.1,030.2,028.9,0000.0,0005.85,0016.05,0004.99
2024-06-11 02:06:00,SystemResetWarning,0827.0,5.00,000.00,029.3,027.0,000.0,037.9,030.4,030.5,0000.0,0005.82,0016.10,0004.96
2024-06-11 02:07:00,SystemResetWarning,0827.0,5.00,000.00,029.3,027.4,000.0,037.9,030.7,031.3,0000.0,0005.82,0015.18,0004.93
2024-06-11 02:08:00,SystemResetWarning,0827.0,5.01,000.00,029.3,027.8,000.0,037.8,030.9,031.7,0000.0,0005.83,0014.98,0004.93
2024-06-11 02:09:00,SystemResetWarning,0827.1,5.01,000.00,029.4,028.1,000.0,037.8,031.0,031.6,0000.0,0005.84,0014.32,0004.92
2024-06-11 02:10:00,SystemResetWarning,0827.1,5.00,000.00,029.5,028.3,000.0,037.8,031.1,030.7,0000.0,0005.82,0014.24,0004.88
2024-06-11 02:11:00,SystemResetWarning,0827.1,4.98,000.00,029.5,028.6,000.0,037.8,031.3,030.6,0000.0,0005.78,0014.38,0004.83
2024-06-11 02:12:00,SystemResetWarning,0827.1,5.00,000.00,029.6,028.8,000.0,037.8,031.3,030.7,0000.0,0005.72,0013.73,0004.78
2024-06-11 02:13:00,SystemResetWarning,0827.1,5.01,000.00,029.6,028.9,000.0,037.8,031.4,032.5,0000.0,0005.69,0013.56,0004.75
2024-06-11 02:14:00,SystemResetWarning,0827.2,5.01,000.00,029.7,029.0,000.0,037.8,031.5,027.2,0000.0,0005.63,0013.44,0004.71
2024-06-11 02:15:00,SystemResetWarning,0827.1,5.00,000.00,029.7,029.2,000.0,037.9,031.6,026.5,0000.0,0005.58,0012.76,0004.66
2024-06-11 02:16:00,SystemResetWarning,0827.1,4.99,000.00,029.8,029.3,000.0,037.9,031.6,027.3,0000.0,0005.51,0011.02,0004.60
2024-06-11 02:17:00,SystemResetWarning,0827.1,4.99,000.00,029.9,029.4,000.0,037.9,031.7,026.1,0000.0,0005.48,0011.27,0004.57
2024-06-11 02:18:00,SystemResetWarning,0827.2,5.00,000.00,029.9,029.4,000.0,038.0,031.7,026.1,0000.0,0005.40,0010.78,0004.52
2024-06-11 02:19:00,SystemResetWarning,0827.2,5.00,000.00,030.0,029.5,000.0,038.0,031.8,026.6,0000.0,0005.32,0010.49,0004.45
2024-06-11 02:20:00,SystemResetWarning,0827.4,5.01,000.00,030.0,029.6,000.0,038.0,031.9,026.9,0000.0,0005.28,0010.46,0004.40
2024-06-11 02:21:00,SystemResetWarning,0827.4,5.00,000.00,030.1,029.2,000.0,038.1,031.7,027.1,0000.0,0005.26,0010.44,0004.37
2024-06-11 02:22:00,SystemResetWarning,0827.3,4.98,000.00,029.8,027.2,000.0,038.2,030.6,027.9,0000.0,0005.24,0010.28,0004.36
2024-06-11 02:23:00,SystemResetWarning,0827.4,5.03,000.00,029.4,026.5,000.0,038.2,030.2,027.8,0000.0,0005.22,0009.91,0004.36
2024-06-11 02:24:00,SystemResetWarning,0827.4,4.99,000.00,029.3,026.7,000.0,038.1,030.3,027.9,0000.0,0005.22,0009.94,0004.34
2024-06-11 02:25:00,SystemResetWarning,0827.4,4.99,000.00,029.3,027.1,000.0,038.0,030.6,028.1,0000.0,0005.19,0009.77,0004.31
2024-06-11 02:26:00,SystemResetWarning,0827.7,5.02,000.00,029.3,027.5,000.0,037.9,030.8,028.5,0000.0,0005.20,0010.06,0004.31
2024-06-11 02:27:00,SystemResetWarning,0827.6,5.00,000.00,029.4,027.9,000.0,037.9,030.9,027.9,0000.0,0005.21,0011.36,0004.31
2024-06-11 02:28:00,SystemResetWarning,0827.6,4.99,000.00,029.4,028.2,000.0,037.9,031.1,027.8,0000.0,0005.23,0011.61,0004.30
2024-06-11 02:29:00,SystemResetWarning,0827.7,4.99,000.00,029.5,028.4,000.0,037.9,031.2,027.6,0000.0,0005.27,0011.93,0004.30
2024-06-11 02:30:00,SystemResetWarning,0827.7,5.01,000.00,029.5,028.6,000.0,037.9,031.3,027.8,0000.0,0005.36,0012.30,0004.31
2024-06-11 02:31:00,SystemResetWarning,0827.7,5.01,000.00,029.6,028.8,000.0,037.9,031.3,027.7,0000.0,0005.38,0012.41,0004.30
2024-06-11 02:32:00,SystemResetWarning,0827.8,5.00,000.00,029.7,028.9,000.0,037.9,031.4,027.8,0000.0,0005.40,0013.36,0004.28
2024-06-11 02:33:00,SystemResetWarning,0827.9,5.00,000.00,029.7,029.1,000.0,037.9,031.5,027.8,0000.0,0005.47,0014.80,0004.28
2024-06-11 02:34:00,SystemResetWarning,0827.8,5.00,000.00,029.8,029.2,000.0,038.0,031.5,027.6,0000.0,0005.52,0015.54,0004.27
2024-06-11 02:35:00,SystemResetWarning,0828.0,5.00,000.00,029.8,029.3,000.0,038.0,031.6,027.7,0000.0,0005.55,0015.73,0004.26
2024-06-11 02:36:00,SystemResetWarning,0828.1,5.00,000.00,029.9,029.4,000.0,038.0,031.7,027.3,0000.0,0005.61,0016.37,0004.25
2024-06-11 02:37:00,SystemResetWarning,0828.1,5.00,000.00,029.9,029.4,000.0,038.1,031.7,027.0,0000.0,0005.64,0017.52,0004.24
2024-06-11 02:38:00,SystemResetWarning,0828.2,5.00,000.00,030.0,029.5,000.0,038.1,031.8,026.7,0000.0,0005.64,0017.85,0004.24
2024-06-11 02:39:00,SystemResetWarning,0828.2,5.00,000.00,030.0,029.6,000.0,038.1,031.8,026.6,0000.0,0005.60,0017.91,0004.21
2024-06-11 02:40:00,SystemResetWarning,0828.2,5.00,000.00,030.1,029.6,000.0,038.2,031.9,026.2,0000.0,0005.58,0018.42,0004.18
2024-06-11 02:41:00,SystemResetWarning,0828.2,5.00,000.00,030.1,029.7,000.0,038.2,031.9,026.0,0000.0,0005.52,0018.30,0004.15
2024-06-11 02:42:00,SystemResetWarning,0828.3,5.00,000.00,030.2,029.7,000.0,038.3,032.0,026.0,0000.0,0005.50,0019.02,0004.14
2024-06-11 02:43:00,SystemResetWarning,0828.3,5.00,000.00,030.2,029.7,000.0,038.3,032.0,026.2,0000.0,0005.48,0019.58,0004.14
2024-06-11 02:44:00,SystemResetWarning,0828.3,4.98,000.00,030.1,028.0,000.0,038.4,031.2,026.5,0000.0,0005.49,0018.61,0004.15
2024-06-11 02:45:00,SystemResetWarning,0828.2,5.03,000.00,029.7,026.6,000.0,038.4,030.5,027.1,0000.0,0005.47,0017.88,0004.13
2024-06-11 02:46:00,SystemResetWarning,0828.3,5.00,000.00,029.5,026.7,000.0,038.3,030.3,027.6,0000.0,0005.42,0018.05,0004.12
2024-06-11 02:47:00,SystemResetWarning,0828.4,4.99,000.00,029.4,027.1,000.0,038.2,030.5,028.0,0000.0,0005.40,0019.14,0004.12
2024-06-11 02:48:00,SystemResetWarning,0828.4,4.99,000.00,029.4,027.5,000.0,038.1,030.8,028.0,0000.0,0005.37,0018.81,0004.13
2024-06-11 02:49:00,SystemResetWarning,0828.5,5.01,000.00,029.5,027.8,000.0,038.1,031.0,028.0,0000.0,0005.34,0019.12,0004.13
2024-06-11 02:50:00,SystemResetWarning,0828.6,5.01,000.00,029.5,028.1,000.0,038.0,031.1,028.0,0000.0,0005.38,0018.67,0004.15
2024-06-11 02:51:00,SystemResetWarning,0828.6,5.00,000.00,029.5,028.4,000.0,038.0,031.2,028.0,0000.0,0005.39,0019.16,0004.19
2024-06-11 02:52:00,SystemResetWarning,0828.6,4.99,000.00,029.6,028.6,000.0,038.0,031.3,028.0,0000.0,0005.42,0019.76,0004.22
2024-06-11 02:53:00,SystemResetWarning,0828.6,5.00,000.00,029.7,028.8,000.0,038.0,031.4,027.9,0000.0,0005.43,0020.66,0004.23
2024-06-11 02:54:00,SystemResetWarning,0828.6,5.00,000.00,029.7,029.0,000.0,038.0,031.5,027.3,0000.0,0005.45,0020.97,0004.23
2024-06-11 02:55:00,SystemResetWarning,0828.6,5.00,000.00,029.8,029.1,000.0,038.0,031.6,027.0,0000.0,0005.42,0020.93,0004.21
2024-06-11 02:56:00,SystemResetWarning,0828.6,5.01,000.00,029.8,029.2,000.0,038.1,031.6,026.7,0000.0,0005.39,0021.52,0004.19
2024-06-11 02:57:00,SystemResetWarning,0828.6,5.01,000.00,029.9,029.3,000.0,038.1,031.7,026.5,0000.0,0005.42,0022.64,0004.19
2024-06-11 02:58:00,SystemResetWarning,0828.6,5.00,000.00,029.9,029.4,000.0,038.1,031.8,026.5,0000.0,0005.39,0022.36,0004.16
2024-06-11 02:59:00,SystemResetWarning,0828.6,5.00,000.00,030.0,029.5,000.0,038.1,031.8,026.5,0000.0,0005.39,0022.67,0004.15
